Showing default

FLOCK 4G 31, 62652

Orbit data source: Space-Track

FLOCK 4G 31, 62652 is a payload satellite owned by Planet (US) in SSO that was launched on Tue, 14 Jan 2025 UTC via an FALCON 9 launch vehicle from the Air Force Western Test Range (AFWTR). Payload-class satellites include a variety of spacecraft equipped with specific instruments for various scientific and technological missions. These include communications satellites like Starlink; space stations such as the ISS; scientific satellites like the Hubble; Earth observation satellites from companies like Planet Labs, Umbra, and HawkEye 360; GPS; miniature CubeSats for education and research; and military/defense satellites.

Loading next visibility...
Identifier
62652, 2025-009AV
Orbit
SSO
Country
Flag of USUS
Related business
Manufacturer
Planet
Mission
Operational Commercial Imaging
Bus & Motor
CUBESAT 3U, Unknown motor
Mass
5.7 kg wet, 5.7 kg dry
Launch date (UTC)
2025-01-14 (1 year ago)
Launch vehicle
FALCON 9
Launch site
Air Force Western Test Range (AFWTR)
Object type
Payload
Rocket body
Debris
Shape & HBR
Box + 2 Pan, 1.0 m
Radar Cross Section
0.072 m², Medium (>0.1 m² and < 1m²)

Expand to show TLE details & history
Last TLE update: 17 hours ago

TLE from 17 hours ago
0 FLOCK 4G 31
1 62652U 25009AV  26171.16220497  .00008714  00000-0  31097-3 0  9998
2 62652  97.3966 252.7184 0000511  43.6448 316.4833 15.29112778 79364
Epoch: 2026-06-20T03:53Z
TLE epoch observation values (Epoch: 2026-06-20T03:53:34.509Z)
Latitude
0.00004°
Longitude
-74.05618°
Altitude
481.312 km
Speed
7.625 km/s
True Right ascension
16h 50m 52s
True Declination
0° 00' 00"
Sunlit
Object was in full shadow at epoch
Visualization orbit readout
Latitude
Unknown
Longitude
Unknown
Altitude
Unknown
Speed
Unknown
Apparent Right ascension
Unknown
Apparent Declination
Unknown
Sunlit
N/A
Visualization observer readout
Local Sidereal Time
07:19:34
Azimuth
Unknown
Elevation
Unknown
Doppler factor
Unknown
Orbital elements
Apogee altitude
475.767 km
Perigee altitude
475.066 km
Semi-major axis
6,853.554 km
Eccentricity
0.00005
Inclination
97.3966°
RAAN
252.7184°
Arg. of periapsis
43.6448°
True anomaly
316.47927°
Mean anomaly
316.4833°
Eccentric anomaly
316.48128°
Mean motion
3.82533 °/min
Orbital period
94.11 mins
BSTAR
0.00031097
Loading maneuver chart data...
Computing Atmospheric mass density...
Loading historical data...
Loading historical data...
Loading historical data...
Loading historical data...
Loading historical data...
Loading historical data...
Loading historical data...

Documentation

Showing up to 5 results
|